{"data":{"norad_id":52367,"intl_designator":"2022-045AN","name":"STARLINK-3817","alt_names":[],"object_type":"PAYLOAD","status":"ACTIVE","operator":null,"country":"US","launch_date":"2022-04-29","launch_site_code":"AFETR","launch_vehicle":null,"mission":null,"orbit_class":"UNKNOWN","rcs_meters":null,"size_class":null,"mass_kg":null,"dimensions":null,"purposes":["comms"],"wikipedia_slug":null,"has_3d_model":false,"image_url":null,"decayed_at":null,"tle_current":{"epoch":"2026-05-25T03:45:34.644672Z","epoch_age_seconds":58694,"freshness":"FRESH","line1":"1 52367U 22045AN  26145.15665098 -.00000058  00000+0  14406-4 0  9996","line2":"2 52367  53.2118 205.8483 0000982  82.0476 278.0628 15.08836933227461","mean_motion":15.08836933,"eccentricity":9.82e-5,"inclination_deg":53.2118,"raan_deg":205.8483,"arg_perigee_deg":82.0476,"mean_anomaly_deg":278.0628,"bstar":1.4406e-5,"rev_number":22746,"period_min":95.437748672871,"perigee_km":539.07342679723,"apogee_km":540.43210034679,"semimajor_km":6917.889763572,"source":"CELESTRAK","updated_at":"2026-05-25T13:38:17.119912Z"}}}